Location: Buch
(49.7331°N, 12.1098°E)
Time: 00:18:58
(UTC+00:00)

Landsat 7 - Pass Details

Date: 07 October 2021
Orbit: 701 x 703 km, 98.0° (Epoch: 23 October)

Event Time Altitude Azimuth Distance (km) Brightness Sun altitude
Exits shadow 20:35:43 23° 308° (NW) 1,500 6.0 -36.8°
Drops below altitude 10° 20:37:55 10° 328° (NNW) 2,180 7.1 -37.0°
Sets 20:40:25 0° 339° (NNW) 3,103 7.9 -37.3°
